Regional Weather Roundup
Issued by NWS Sterling, VA

Home | Current Version | Previous Version | Text Only | Print | Product List | Glossary Off
Versions: 1 2 3 4 5 6 7 8 9 10 11 12 13 14 15 16 17 18 19 20 21 22 23 24 25 26 27 28 29 30 31 32 33 34 35 36 37 38 39 40 41 42 43 44 45 46 47 48 49 50

000
ASUS41 KLWX 041710
RWRLWX

REGIONAL WEATHER ROUNDUP
NATIONAL WEATHER SERVICE BALTIMORE MD/WASHINGTON DC
100 PM EDT MON MAY 04 2015

Note: "FAIR" indicates few or no clouds below 12,000 feet
with no significant weather and/or obstructions to visibility.
 TC=TEMPERATURE CELSIUS

 * =Non NWS site. Station does not report precipitation (e.g. rain,
    snow, etc.), thunder, or fog.

DCZ001-MDZ009-015-VAZ040>042-051-053>054-041800-
WASHINGTON METRO

CITY           SKY/WX    TMP DP  RH WIND       PRES   REMARKS
WASHINGTON NAT MOSUNNY   81  53  37 SW18      30.22F
DULLES         SUNNY     81  45  28 S13G22    30.21F
ANDREWS AFB    SUNNY     82  45  26 S15G21    30.22F
FT BELVOIR     SUNNY     82  49  32 S12G18    30.22F
QUANTICO       MOSUNNY   74  57  55 S14       30.23F
COLLEGE PARK*  SUNNY     82  43  24 S9G17     30.22F
LEESBURG*      SUNNY     84  52  32 S15G28    30.21F
MANASSAS*      SUNNY     82  46  28 SW10G16   30.22F
GAITHERSBURG*  SUNNY     82  46  28 SW7G16    30.25F

$$

MDZ006>007-011-014-041800-
BALTIMORE METRO

CITY           SKY/WX    TMP DP  RH WIND       PRES   REMARKS
BWI AIRPORT    MOSUNNY   82  41  23 SW13G22   30.20F
MD SCIENCE CTR   N/A     84  40  21 MISG      30.20F
MARTIN STATE   MOSUNNY   75  59  57 SE14      30.23F
ANNAPOLIS      SUNNY     72  54  53 SE15      30.22F
FORT MEADE*    SUNNY     82  39  21 SW15G21   30.24F

$$

MDZ012-015-019>023-041800-
MARYLAND EASTERN SHORE

CITY           SKY/WX    TMP DP  RH WIND       PRES   REMARKS
OCEAN CITY     MOSUNNY   76  55  48 S8        30.27F
SALISBURY      SUNNY     80  43  26 SW10      30.25F
BAY BRIDGE AP*   N/A    N/A N/A N/A S14       30.23F
CAMBRIDGE*     SUNNY     81  46  30 SW8       30.25F
EASTON*        MOSUNNY   82  50  32 MISG      30.28F

$$

MDZ017>025-041800-
SOUTHERN MARYLAND

CITY           SKY/WX    TMP DP  RH WIND       PRES   REMARKS
PATUXENT RIVER MOSUNNY   79  47  32 S16       30.25F
ST INIGOES     SUNNY     80  48  32 S12       30.25F
LEONARDTOWN*   SUNNY     79  45  29 S12G18    30.27S

$$

MDZ003>005-041800-
NORTH CENTRAL MARYLAND

CITY           SKY/WX    TMP DP  RH WIND       PRES   REMARKS
FREDERICK*     SUNNY     84  36  17 SW15      30.23F
HAGERSTOWN APT SUNNY     80  46  30 SW8       30.19F
WESTMINSTER*   SUNNY     81  36  19 SW18G25   30.21F

$$

MDZ501>502-041800-
WESTERN MARYLAND

CITY           SKY/WX    TMP DP  RH WIND       PRES   REMARKS
OAKLAND*       SUNNY     70  43  37 W10G18    30.27F
CUMBERLAND*    SUNNY     82  43  24 S8        30.21F

$$

VAZ025>031-041800-
SHENANDOAH VALLEY

CITY           SKY/WX    TMP DP  RH WIND       PRES   REMARKS
WINCHESTER*    SUNNY     82  32  16 SW13G20   30.20F
FRONT ROYAL*   FAIR      81  43  26 SW7       30.19F
LURAY*         FAIR      82  46  28 S10       30.21F
NEW MARKET*    FAIR      80  49  33 S9        30.19F
STAUNTON*      SUNNY     80  42  26 SW12      30.26F
WAYNESBORO*    FAIR      78  47  33 SW6       30.26F

$$

WVZ021-048>050-054>055-041800-
EASTERN WEST VIRGINIA PANHANDLE

CITY           SKY/WX    TMP DP  RH WIND       PRES   REMARKS
MARTINSBURG    SUNNY     81  46  29 S12G20    30.19F
PETERSBURG*    PTSUNNY   80  40  23 CALM      30.20F

$$

VAZ036>039-050-041800-
CENTRAL FOOTHILLS

CITY           SKY/WX    TMP DP  RH WIND       PRES   REMARKS
CHARLOTTESVILL SUNNY     80  52  37 S10G20    30.23F
CULPEPER*      NOT AVBL
ORANGE*        SUNNY     81  48  32 SE14G24   30.24F
GORDONSVILLE*  FAIR      80  52  36 S10G16    30.22F
WARRENTON*     FAIR      83  52  33 S9G21     30.22F

$$

VAZ055>057-041800-
NORTH AND CENTRAL PIEDMONT

CITY           SKY/WX    TMP DP  RH WIND       PRES   REMARKS
FREDERICKSBRG* SUNNY     84  47  28 SW8G20    30.23F
STAFFORD*      SUNNY     80  40  23 S12G20    30.27F

$$

NCZ024-NYZ072-PAZ021-071-VAZ022-071-041800-
OTHER REGIONAL OBSERVATIONS

CITY           SKY/WX    TMP DP  RH WIND       PRES   REMARKS
NEW YORK CITY  SUNNY     84  44  24 W9        30.20F
PHILADELPHIA   MOSUNNY   83  46  27 W13G21    30.21F
PITTSBURGH     PTSUNNY   79  44  28 W18G28    30.17F
ROANOKE        MOSUNNY   79  46  31 VRB5      30.27F
RICHMOND       MOSUNNY   81  50  33 SW14      30.26F
RALEIGH        MOSUNNY   79  59  50 SW12      30.31F

$$

ANZ530>537-041800-
MARINE OBSERVATIONS

STATION/POSITION TIME  TEMP    WIND        PRES
                       AIR SEA DIR/SP/G
                 (UTC) (F)     (DEG/KT/KT) (MB)
THOMAS PT LIGHT  1700   69 58  160/ 15/ 16 1024.1F
BALT KEY BRIDGE  1600   71      90/  9/ 10 1023.3F
COVE POINT       1600   72     190/ 10/ 12 1025.4R
LEWISETTA        1600   77 64              1024.7F
SOLOMONS ISLAND  1600      60                N/A
PINEY POINT      1600          150/  4/  6   N/A

$$




USA.gov is the U.S. government's official web portal to all federal, state and local government web resources and services.